Voltar ao catálogo

STARLINK-35615

AtivoComunicaçõesVLEO
NORAD 66257·PAYLOAD·🇺🇸 United States

Lançado Oct 29, 2025 de Cape Canaveral Space Force Station

Loading…

Próximas Passagens (próximas 24 horas)

TLE

AtualizadoSource: CelesTrak SupGP

Época: Sep 15, 2026, 03:36 UTC

1 66257C 25245Z   26258.15048611  .00028155  00000+0  83189-3 0  2583
2 66257  53.1571 122.7870 0001244  84.2508 110.4614 15.34374597    11

Acompanhe STARLINK-35615 em tempo real com AllMySat

Download on the App Store